This is the latest recevied weather packets stored in our database for station/object MIDVIL-WX. If no packets are shown the sender has not sent any weather packets the latest 10 day(s).
| Time | Temp. | Humidity | Pressure | Rain* | Wind** | Luminosity | Snow |
|---|---|---|---|---|---|---|---|
| 1778196644 | 11.11° C | 39% | 985.7 hPa | 0 mm | - | - | - |
| 1778195726 | 11.11° C | 39% | 985.7 hPa | 0 mm | - | - | - |
| 1778194848 | 11.67° C | 39% | 985.7 hPa | 0 mm | - | - | - |
| 1778193925 | 11.67° C | 39% | 985.8 hPa | 0 mm | - | - | - |
| 1778193044 | 11.67° C | 39% | 985.8 hPa | 0 mm | - | - | - |
| 1778192127 | 11.67° C | 39% | 986 hPa | 0 mm | - | - | - |
| 1778191255 | 11.67° C | 39% | 986 hPa | 0 mm | - | - | - |
| 1778190331 | 11.11° C | 37% | 986.5 hPa | 0 mm | - | - | - |
| 1778189443 | 11.67° C | 36% | 986.7 hPa | 0 mm | - | - | - |
| 1778188530 | 11.67° C | 36% | 986.7 hPa | 0 mm | - | - | - |
| 1778187654 | 11.67° C | 36% | 986.7 hPa | 0 mm | - | - | - |
| 1778186727 | 11.67° C | 37% | 986.8 hPa | 0 mm | - | - | - |
| 1778185841 | 11.67° C | 35% | 986.4 hPa | 0 mm | - | - | - |
| 1778184927 | 11.67° C | 35% | 986.4 hPa | 0 mm | - | - | - |
| 1778184054 | 11.67° C | 35% | 986.4 hPa | 0 mm | - | - | - |
| 1778183129 | 11.67° C | 37% | 986.5 hPa | 0 mm | - | - | - |
| 1778182245 | 11.67° C | 37% | 986.5 hPa | 0 mm | - | - | - |
| 1778181330 | 11.67° C | 37% | 986.5 hPa | 0 mm | - | - | - |
| 1778180452 | 11.67° C | 37% | 986.5 hPa | 0 mm | - | - | - |
| 1778179531 | 11.67° C | 39% | 987.4 hPa | 0 mm | - | - | - |
| 1778178645 | 11.67° C | 43% | 987.3 hPa | 0 mm | - | - | - |
| 1778177731 | 11.11° C | 43% | 987.3 hPa | 0 mm | - | - | - |
| 1778176856 | 11.11° C | 43% | 987.3 hPa | 0 mm | - | - | - |
| 1778175927 | 11.11° C | 42% | 988 hPa | 0 mm | - | - | - |
| 1778175045 | 10.56° C | 39% | 988.3 hPa | 0 mm | - | - | - |
* Rain latest hour (hover to see other rain measurements)
** Current wind speed in m/s (hover to see current wind gust speed)